Regional Weather Roundup
Issued by NWS Kansas City/Pleasant Hill, MO

Home | Current Version | Previous Version | Text Only | Print | Product List | Glossary On
Versions: 1 2 3 4 5 6 7 8 9 10 11 12 13 14 15 16 17 18 19 20 21 22 23 24 25 26 27 28 29 30 31 32 33 34 35 36 37 38 39 40 41 42 43 44 45 46 47 48 49 50
000
ASUS43 KEAX 050611
RWREAX

WEATHER ROUNDUP FOR EASTERN KANSAS AND NORTHWEST MISSOURI
NATIONAL WEATHER SERVICE KANSAS CITY/PLEASANT HILL MO
100 AM CDT TUE MAY 05 2015

KSZ040-057-103>105-MOZ028-029-037-043-050700-
...KANSAS CITY METROPOLITAN AREA...

CITY           SKY/WX    TMP DP  RH WIND       PRES   REMARKS
K.C. INTL      CLOUDY    61  60  97 S3        30.10F
6HR MIN TEMP:  61; 6HR MAX TEMP:  65; 6HR PCP:  0.33;

K.C. DOWNTOWN  CLOUDY    65  62  90 W5        30.10F
6HR MIN TEMP:  64; 6HR MAX TEMP:  78; 6HR PCP:  0.44;

LEES SUMMIT    CLOUDY    62  61  96 E3        30.11F
6HR MIN TEMP:  62; 6HR MAX TEMP:  78; 6HR PCP:  0.08;

OLATHE - IXD   CLOUDY    62  61  96 N3        30.12S
6HR MIN TEMP:  62; 6HR MAX TEMP:  78; 6HR PCP:  0.07;

OLATHE - OJC   CLOUDY    63  62  97 NW5       30.11R
6HR MIN TEMP:  63; 6HR MAX TEMP:  77; 6HR PCP:  0.08;

LAWRENCE       CLOUDY    63  61  93 SE3       30.10F

$$

MOZ001>008-011>017-020>025-030>033-038>040-044>046-053-054-050700-
...NORTHERN AND CENTRAL MISSOURI...

CITY           SKY/WX    TMP DP  RH WIND       PRES   REMARKS
ST. JOSEPH     CLOUDY    62  61  96 S6        30.08F
6HR MIN TEMP:  62; 6HR MAX TEMP:  67; 6HR PCP:  0.83;

MOSBY          CLOUDY    61  61 100 CALM      30.10S
WARRENSBURG    CLOUDY    64  61  88 CALM      30.11S
WHITEMAN AFB   NOT AVBL
CLINTON        CLOUDY    72  63  73 S5        30.11S
SEDALIA        CLOUDY    72  60  66 NW5       30.12R
6HR MIN TEMP:  70; 6HR MAX TEMP:  78;

WARSAW         NOT AVBL
MARSHALL       CLOUDY    68  63  83 CALM      30.12R
CHILLICOTHE      N/A     62  61  96 CALM      30.12R
6HR MIN TEMP:  62; 6HR MAX TEMP:  71; 6HR PCP:  0.22;

MOBERLY        CLOUDY    68  59  73 S8G32     30.11R
KIRKSVILLE     CLOUDY    62  61  96 NE3       30.10S
6HR MIN TEMP:  62; 6HR MAX TEMP:  73; 6HR PCP:  0.03;


$$

MOZ041-047>049-056>058-063>065-088>090-097-050700-
...EASTERN AND SOUTHERN MISSOURI...

CITY           SKY/WX    TMP DP  RH WIND       PRES   REMARKS
ST. LOUIS INTL MOCLDY    75  53  46 S9        30.13R
6HR MIN TEMP:  75; 6HR MAX TEMP:  83;

SPIRIT OF STL  CLOUDY    72  54  53 SW7       30.12R
COLUMBIA       CLOUDY    68  57  68 S9        30.11R
JEFFERSON CITY CLOUDY    71  55  56 S9        30.11R
MEXICO         CLOUDY    72  61  68 S12       30.10R
HANNIBAL       CLOUDY    68  59  73 S7        30.09R
ROLLA          MOCLDY    68  55  63 S13G21    30.14R
LEBANON        PTCLDY    64  54  68 S6        30.18R
OSAGE BEACH    CLOUDY    66  54  63 S8        30.15R
SPRINGFIELD    PTCLDY    62  53  72 S7        30.15R
BRANSON        CLEAR     64  54  68 CALM      30.18S
NEVADA         PTCLDY    63  59  88 S6        30.12F
JOPLIN         CLEAR     64  54  69 SE7       30.12F
WEST PLAINS    CLEAR     67  53  61 S6        30.19R

$$

IAZ060-094-KSZ022-034>040-054-083-096-NEZ052-066-093-050700-
...KANSAS...SOUTHEAST NEBRASKA AND IOWA...

CITY           SKY/WX    TMP DP  RH WIND       PRES   REMARKS
TOPEKA         CLOUDY    62  60  93 SE3       30.10S
6HR MIN TEMP:  62; 6HR MAX TEMP:  65; 6HR PCP:  0.24;

MANHATTAN      LGT RAIN  60  60 100 CALM      30.10F
EMPORIA        CLOUDY    61  57  87 E8        30.09F
CHANUTE        MOCLDY    64  59  83 SE7       30.10R
WICHITA        MOCLDY    67  56  67 SE7       30.06R
OMAHA          CLOUDY    60  57  89 SE3       30.07F
LINCOLN        CLOUDY    61  59  93 MISG      30.08S FOG
FALLS CITY     LGT RAIN  62  62 100 W6        30.09F
LAMONI         LGT RAIN  64  62  93 SW7       30.08R
DES MOINES     CLOUDY    64  61  90 E6        30.07S

$$



USA.gov is the U.S. government's official web portal to all federal, state and local government web resources and services.